Kozani, Greece

4:34 PM EET on December 12, 2017 (GMT +0200)
Kozani

Weather History for LGKZ - January, 2014

Change the Weather History Date:

Thursday, January 2, 2014

  Actual Average Record
Temperature  
Mean Temperature 40 °F -  
Max Temperature 42 °F - - ()
Min Temperature 37 °F - - ()
Degree Days  
Heating Degree Days 26    
Moisture  
Dew Point 37 °F    
Average Humidity 91    
Maximum Humidity 100    
Minimum Humidity 76    
Precipitation  
Precipitation 0.00 in - - ()
Sea Level Pressure  
Sea Level Pressure 30.14 in    
Wind  
Wind Speed 1 mph ()    
Max Wind Speed 2 mph    
Max Gust Speed -    
Visibility 4.5 miles    
Events      
T = Trace of Precipitation, MM = Missing Value Source: Averaged Metar Reports

Daily Weather History Graph

Daily Weather History Graph

Search for Another Location

Airport or City:

Trip Planner

Search our weather history database for the weather conditions in past years. The results will help you decide how hot, cold, wet, or windy it might be!

Date:

Astronomy

Jan. 02, 2014 Rise Set
Actual Time 7:55 AM EET 5:18 PM EET
Civil Twilight 7:25 AM EET 5:48 PM EET
Nautical Twilight 6:51 AM EET 6:22 PM EET
Astronomical Twilight 6:18 AM EET 6:55 PM EET
Moon 8:21 AM EET (1/2) 6:52 PM EET (1/2)
Length of Visible Light 10h 23m
Length of Day
9h 22m
New Moon, 1% of the Moon is Illuminated
Jan 2
New Moon
Jan 8
First Quarter
Jan 16
Full
Jan 24
Last Quarter
Jan 30
New

Hourly Weather History & Observations

Time (EET) Temp. Dew Point Humidity Pressure Visibility Wind Dir Wind Speed Gust Speed Precip Events Conditions
12:20 AM 39.2 °F 37.4 °F 93% 30.15 in - Variable 1.2 mph - N/A   Unknown
12:50 AM 39.2 °F 37.4 °F 93% 30.15 in - Calm Calm - N/A   Unknown
1:20 AM 39.2 °F 37.4 °F 93% 30.15 in - Calm Calm - N/A   Unknown
1:50 AM 39.2 °F 37.4 °F 93% 30.15 in - Variable 1.2 mph - N/A   Unknown
2:20 AM 39.2 °F 37.4 °F 93% 30.15 in - Variable 2.3 mph - N/A   Unknown
2:50 AM 39.2 °F 37.4 °F 93% 30.15 in - Variable 2.3 mph - N/A   Unknown
3:20 AM 39.2 °F 35.6 °F 87% 30.15 in - Variable 1.2 mph - N/A   Unknown
3:50 AM 39.2 °F 35.6 °F 87% 30.12 in - Variable 1.2 mph - N/A   Unknown
4:20 AM 39.2 °F 37.4 °F 93% 30.12 in - Calm Calm - N/A   Unknown
4:50 AM 39.2 °F 37.4 °F 93% 30.12 in - Calm Calm - N/A   Unknown
5:20 AM 39.2 °F 37.4 °F 93% 30.12 in - Calm Calm - N/A   Unknown
5:50 AM 39.2 °F 37.4 °F 93% 30.12 in - Calm Calm - N/A   Unknown
6:20 AM 39.2 °F 37.4 °F 93% 30.12 in - Variable 1.2 mph - N/A   Unknown
6:50 AM 37.4 °F 37.4 °F 100% 30.12 in - Variable 1.2 mph - N/A   Unknown
7:20 AM 37.4 °F 37.4 °F 100% 30.12 in - Variable 2.3 mph - N/A   Unknown
7:50 AM 37.4 °F 37.4 °F 100% 30.12 in 4.3 mi Calm Calm - N/A   Overcast
8:50 AM 39.2 °F 37.4 °F 93% 30.15 in 3.7 mi Calm Calm - N/A   Overcast
9:50 AM 39.2 °F 37.4 °F 93% 30.15 in 3.7 mi Calm Calm - N/A   Overcast
10:50 AM 41.0 °F 37.4 °F 87% 30.15 in 3.7 mi Calm Calm - N/A   Overcast
11:50 AM 42.8 °F 35.6 °F 76% 30.15 in 5.0 mi Calm Calm - N/A   Overcast
12:50 PM 42.8 °F 35.6 °F 76% 30.12 in 5.6 mi Calm Calm - N/A   Overcast
1:50 PM 42.8 °F 37.4 °F 81% 30.15 in 5.6 mi Calm Calm - N/A   Overcast